Regional Weather Roundup
Issued by NWS

Home | Current Version | Previous Version | Text Only | Print | Product List | Glossary Off
Versions: 1 2 3 4 5 6 7 8 9 10 11 12 13 14 15 16 17 18 19 20 21 22 23 24 25 26 27 28 29 30 31 32 33 34 35 36 37 38 39 40 41 42 43 44 45 46 47 48 49 50

028
ASUS45 KSLC 290010
RWRUT

UTAH REGIONAL WEATHER ROUNDUP
NATIONAL WEATHER SERVICE SALT LAKE CITY UT
600 PM MDT WED SEP 28 2016

UTZ001>011-023>025-290100-

NORTHERN UTAH

CITY           SKY/WX    TMP DP  RH WIND       PRES   REMARKS
BRIGHAM CITY     N/A     78  42  27 CALM      30.11F
HILL AFB       MOSUNNY   76  51  41 NW7       30.14S
LOGAN          SUNNY     78  50  37 NW6       30.12F
OGDEN          MOSUNNY   76  51  41 N6        30.11F
PROVO AIRPORT  PTSUNNY   72  55  56 VRB6      30.13S
SALT LAKE CITY PTSUNNY   79  50  36 NW7       30.09F THUNDER
VERNAL         SUNNY     71  51  49 W5        30.21S
WENDOVER       SUNNY    N/A N/A N/A MISG        N/A
HEBER CITY     PTSUNNY   72  41  33 SW5       30.17R
WEST JORDAN    PTSUNNY   74  48  40 NW12      30.13S

$$

UTZ012>022-026-027-290100-

SOUTHERN/CENTRAL UTAH

CITY           SKY/WX    TMP DP  RH WIND       PRES   REMARKS
BLANDING       CLOUDY    72  39  30 S7        30.34S
BRYCE CANYON   PTSUNNY   61  39  44 SE17G25   30.35S
CEDAR CITY     CLOUDY    65  49  56 SW5       30.20F
DELTA          CLOUDY    68  46  45 SW10      30.19R
MILFORD        LGT RAIN  68  48  48 SE15      30.19R
MOAB/CYNLANDS  PTSUNNY   83  35  18 NW7       30.13S
PRICE          CLOUDY    75  35  23 SE8       30.24S
ST GEORGE      MOCLDY    81  46  30 N9        30.07S

$$

REGIONAL REPORTS     COLORADO/ARIZONA

CITY           SKY/WX    TMP DP  RH WIND       PRES   REMARKS
CRAIG, CO      CLEAR     79  29  16 W6        30.25F
GRAND JUNCTION CLOUDY    82  35  18 NW9       30.15S
RIFLE          SUNNY     80  32  17 W14       30.19S
MONTROSE       MOSUNNY   76  38  25 SW6       30.23S
CORTEZ         CLOUDY    76  39  26 S13       30.26S
PAGE, AZ       PTSUNNY   73  48  41 SW7G22    30.17R
GRAND CANYON   PTSUNNY   63  50  62 SE6       30.28F
KINGMAN        PTSUNNY   80  47  31 W9        30.05F
FLAGSTAFF      MOSUNNY   64  50  60 SW8       30.29S

$$

REGIONAL REPORTS    NEVADA/IDAHO/WYOMING

CITY           SKY/WX    TMP DP  RH WIND       PRES   REMARKS
LAS VEGAS, NV  PTSUNNY   86  45  23 E9        29.98S
ELY            PTSUNNY   71  34  25 S13       30.21R
ELKO           SUNNY     84  28  13 NE6       30.07F
POCATELLO, ID  SUNNY     81  38  21 S12       30.11F
BURLEY         SUNNY     80  46  30 NE5       30.05F
EVANSTON, WY   CLOUDY    72  34  24 E10       30.29F
ROCK SPRINGS   SUNNY     72  30  21 E7        30.30F

$$




USA.gov is the U.S. government's official web portal to all federal, state and local government web resources and services.